Regional Weather Roundup
Issued by NWS Albany, NY

Home | Current Version | Previous Version | Text Only | Print | Product List | Glossary On
Versions: 1 2 3 4 5 6 7 8 9 10 11 12 13 14 15 16 17 18 19 20 21 22 23 24 25 26 27
000
ASUS41 KALY 271410
RWRALY

NEW YORK STATE HOURLY WEATHER ROUNDUP
NATIONAL WEATHER SERVICE ALBANY NY
1000 AM EDT THU APR 27 2017

NOTE: "FAIR" INDICATES FEW OR NO CLOUDS BELOW 12,000 FEET WITH NO
SIGNIFICANT WEATHER AND/OR NO OBSTRUCTIONS TO VISIBILITY.

NYZ032-033-038>043-046>054-057>066-NYZ062>081-082-084-271500-
EAST


CITY           SKY/WX    TMP DP  RH WIND       PRES   REMARKS
ALBANY         CLOUDY    62  56  80 S6        29.88F
GLENS FALLS    CLOUDY    63  55  75 S6        29.88S
POUGHKEEPSIE   CLOUDY    60  58  92 CALM      29.90R
NEWBURGH       CLOUDY    61  61 100 CALM      29.92R
MONTGOMERY     CLOUDY    61  58  90 S3        29.90S
WHITE PLAINS   DRIZZLE   60  57  89 S5        29.92R FOG
ISLIP          DRZL/FOG  58  58 100 SW5       29.93R VSB 1
NEW YORK CITY  CLOUDY    62  58  86 S7        29.92S FOG
$$

NYZ005>009-017-018-044>046-055-056-271500-
CENTRAL


CITY           SKY/WX    TMP DP  RH WIND       PRES   REMARKS
FULTON         SUNNY     68  57  68 SE10      29.77S
SYRACUSE       PTSUNNY   68  58  70 E14       29.77F
ROME           CLOUDY    64  58  80 SE12      29.83F
ELMIRA         CLOUDY    66  57  72 VRB6      29.80F
BINGHAMTON     CLOUDY    61  55  81 S10       29.85S
MONTICELLO     PTSUNNY   57  57 100 S5        29.92S
$$

NYZ026>034-041>043-087-271500-
NORTH


CITY           SKY/WX    TMP DP  RH WIND       PRES   REMARKS
WATERTOWN      SUNNY     73  57  57 SE8       29.75F
FORT DRUM      NOT AVBL
OGDENSBURG     FAIR      66  58  75 N6        29.78F
MASSENA        CLOUDY    55  54  96 E10       29.82F
SARANAC LAKE   SUNNY     65  56  72 SW5       29.83F
PLATTSBURGH    SUNNY     65  55  70 SE14      29.83F
$$

NYZ001>004-010>016-019>021-085-271500-
WEST


CITY           SKY/WX    TMP DP  RH WIND       PRES   REMARKS
NIAGARA FALLS  CLOUDY    76  58  53 S8        29.66S
BUFFALO        CLOUDY    74  58  57 S9        29.67S
DUNKIRK        PTSUNNY   75  59  57 S15G28    29.67R
JAMESTOWN      CLOUDY    70  55  60 S15       29.73S
WELLSVILLE     SUNNY     67  57  70 SE13G20   29.79F
ROCHESTER      PTSUNNY   73  58  59 S13       29.71F
PENN YAN       MOSUNNY   66  55  67 S15       29.78S
$$

             KEY
       WCI = WIND CHILL INDEX
       VSB = VISIBILITY
       HX  = HEAT INDEX
$$




USA.gov is the U.S. government's official web portal to all federal, state and local government web resources and services.